Change the Weather History Date:

Saturday, November 2, 2013

  Actual Average Record
Temperature  
Mean Temperature 74 °F 75 °F  
Max Temperature 78 °F 82 °F 87 °F (1976)
Min Temperature 69 °F 68 °F 62 °F (1980)
Degree Days  
Heating Degree Days 0 0  
Month to date heating degree days 0 0  
Since 1 July heating degree days 0 0  
Cooling Degree Days 9 10  
Month to date cooling degree days 20 20  
Year to date cooling degree days 2992 2755  
Growing Degree Days 23 (Base 50)    
Moisture  
Dew Point 69 °F    
Average Humidity 85    
Maximum Humidity 100    
Minimum Humidity 69    
Precipitation  
Precipitation 0.66 in 0.50 in 5.86 in (1959)
Month to date precipitation 1.34 0.99  
Year to date precipitation 76.66 100.64  
Snow  
Snow 0.00 in - - ()
Month to date snowfall 0.0  
Since 1 July snowfall 0.0  
Since 1 September snowfall 0.0  
Snow Depth 0.00 in    
Sea Level Pressure  
Sea Level Pressure 30.06 in    
Wind  
Wind Speed 6 mph (West)    
Max Wind Speed 20 mph    
Max Gust Speed 23 mph    
Visibility 8 miles    
Events Rain    
T = Trace of Precipitation, MM = Missing Value Source: NWS Daily Summary

Daily Weather History Graph

Daily Weather History Graph

Search for Another Location

Airport or City:

Trip Planner

Search our weather history database for the weather conditions in past years. The results will help you decide how hot, cold, wet, or windy it might be!

Date:

Astronomy

Nov. 02, 2013 Rise Set
Actual Time 6:22 AM HST 5:45 PM HST
Civil Twilight 5:59 AM HST 6:07 PM HST
Nautical Twilight 5:33 AM HST 6:34 PM HST
Astronomical Twilight 5:07 AM HST 7:00 PM HST
Moon 5:35 AM HST (11/2) 5:22 PM HST (11/2)
Length of Visible Light 12h 08m
Length of Day
11h 23m
Waning Crescent, 1% of the Moon is Illuminated
Nov 2
Waning Crescent
Nov 3
New
Nov 9
First Quarter
Nov 17
Full
Nov 25
Last Quarter

Hourly Weather History & Observations

Time (HST) Temp. Dew Point Humidity Pressure Visibility Wind Dir Wind Speed Gust Speed Precip Events Conditions
12:53 AM 70.0 °F 69.1 °F 97% 30.06 in 9.0 mi NNW 4.6 mph - 0.02 in Rain Light Rain
1:19 AM 70.0 °F 69.1 °F 97% 30.07 in 2.5 mi North 9.2 mph - 0.10 in Rain Heavy Rain
1:27 AM 71.1 °F 68.0 °F 90% 30.06 in 6.0 mi North 8.1 mph - 0.13 in Rain Light Rain
1:53 AM 70.0 °F 68.0 °F 93% 30.05 in 7.0 mi SW 6.9 mph - 0.14 in Rain Light Rain
2:53 AM 70.0 °F 68.0 °F 93% 30.03 in 10.0 mi WSW 5.8 mph - 0.00 in   Mostly Cloudy
3:53 AM 71.1 °F 66.9 °F 87% 30.03 in 10.0 mi WSW 4.6 mph - N/A   Overcast
4:53 AM 70.0 °F 68.0 °F 93% 30.03 in 10.0 mi WSW 6.9 mph - N/A   Mostly Cloudy
5:53 AM 70.0 °F 66.9 °F 90% 30.04 in 10.0 mi WSW 6.9 mph - N/A   Partly Cloudy
6:53 AM 69.1 °F 66.9 °F 93% 30.06 in 10.0 mi WSW 5.8 mph - 0.00 in Rain Light Rain
7:53 AM 71.1 °F 68.0 °F 90% 30.07 in 10.0 mi South 3.5 mph - 0.00 in   Mostly Cloudy
8:53 AM 77.0 °F 70.0 °F 79% 30.09 in 10.0 mi NNW 5.8 mph - N/A   Partly Cloudy
9:40 AM 75.9 °F 70.0 °F 82% 30.11 in 2.0 mi ENE 18.4 mph 23.0 mph 0.00 in Rain Rain
9:44 AM 73.0 °F 71.1 °F 93% 30.11 in 1.2 mi ENE 12.7 mph 23.0 mph 0.01 in Rain Heavy Rain
9:53 AM 73.0 °F 71.1 °F 93% 30.11 in 2.5 mi NE 8.1 mph - 0.20 in Rain Light Rain
10:06 AM 72.0 °F 70.0 °F 93% 30.11 in 3.0 mi NNW 6.9 mph - 0.00 in Rain Heavy Rain
10:14 AM 72.0 °F 70.0 °F 93% 30.10 in 7.0 mi WNW 8.1 mph - 0.02 in Rain Light Rain
10:38 AM 73.0 °F 70.0 °F 90% 30.10 in 4.0 mi SSW 5.8 mph - 0.02 in Rain Heavy Rain
10:53 AM 73.0 °F 71.1 °F 93% 30.09 in 3.0 mi West 3.5 mph - 0.06 in Rain Rain
11:03 AM 73.0 °F 71.1 °F 93% 30.08 in 5.0 mi WNW 5.8 mph - 0.01 in Rain Light Rain
11:53 AM 75.9 °F 71.1 °F 85% 30.06 in 10.0 mi NNW 5.8 mph - 0.01 in   Overcast
12:00 PM 75.9 °F 71.1 °F 85% 30.06 in 10.0 mi NNW 5.8 mph - N/A   Overcast
12:21 PM 75.0 °F 70.0 °F 84% 30.06 in 1.8 mi WNW 3.5 mph - 0.00 in Rain Heavy Rain
12:30 PM 73.9 °F 71.1 °F 91% 30.06 in 2.0 mi WNW 4.6 mph - 0.08 in Rain Rain
12:37 PM 75.0 °F 72.0 °F 90% 30.05 in 10.0 mi SSW 4.6 mph - 0.09 in Rain Light Rain
12:53 PM 73.0 °F 70.0 °F 90% 30.05 in 5.0 mi SE 4.6 mph - 0.09 in Rain Light Rain
1:47 PM 73.4 °F 69.8 °F 88% 30.03 in 10.0 mi ENE 16.1 mph - 0.01 in   Overcast
1:53 PM 73.9 °F 69.1 °F 85% 30.03 in 10.0 mi ENE 12.7 mph - 0.01 in   Overcast
2:53 PM 75.9 °F 69.1 °F 79% 30.01 in 10.0 mi West 9.2 mph - 0.00 in Rain Light Rain
3:53 PM 77.0 °F 66.9 °F 71% 30.01 in 10.0 mi West 4.6 mph - 0.00 in   Overcast
4:53 PM 75.0 °F 70.0 °F 84% 30.02 in 3.0 mi North 9.2 mph - 0.00 in Rain Heavy Rain
5:13 PM 73.0 °F 71.1 °F 93% 30.03 in 8.0 mi NNE 6.9 mph - 0.03 in Rain Light Rain
5:53 PM 72.0 °F 70.0 °F 93% 30.04 in 8.0 mi WSW 4.6 mph - 0.06 in Rain Light Rain
6:53 PM 71.1 °F 69.1 °F 93% 30.04 in 10.0 mi West 4.6 mph - 0.08 in Rain Light Rain
7:04 PM 71.1 °F 69.1 °F 93% 30.05 in 10.0 mi WSW 4.6 mph - 0.01 in   Mostly Cloudy
7:53 PM 71.1 °F 69.1 °F 93% 30.06 in 10.0 mi WSW 5.8 mph - 0.01 in Rain Light Rain
8:53 PM 72.0 °F 69.1 °F 91% 30.08 in 10.0 mi SW 5.8 mph - 0.00 in Rain Light Rain
9:53 PM 71.1 °F 70.0 °F 96% 30.08 in 10.0 mi WSW 3.5 mph - 0.00 in   Mostly Cloudy
10:53 PM 71.1 °F 69.1 °F 93% 30.08 in 10.0 mi WSW 4.6 mph - N/A   Mostly Cloudy
11:53 PM 71.1 °F 69.1 °F 93% 30.07 in 10.0 mi SW 4.6 mph - N/A   Mostly Cloudy